Location: Newark
(44.4156°N, 12.1972°E)
Time: 15:25:50
(UTC+00:00)

STARLINK-1092 - Pass Details

Date: 31 January 2020
Orbit: 348 x 351 km, 53.0° (Epoch: 18 February)

Event Time Altitude Azimuth Distance (km) Brightness Sun altitude
Rises 17:00:27 0° 306° (NW) 2,166 7.3 -7.9°
Reaches altitude 10° 17:02:31 10° 313° (NW) 1,321 6.0 -8.3°
Maximum altitude 17:05:22 45° 28° (NNE) 488 3.1 -8.7°
Enters shadow 17:08:04 11° 103° (ESE) 1,264 4.9 -9.2°
